TimeEDT,TemperatureF,Dew PointF,Humidity,Sea Level PressureIn,VisibilityMPH,Wind Direction,Wind SpeedMPH,Gust SpeedMPH,PrecipitationIn,Events,Conditions,WindDirDegrees,DateUTC
12:00 AM,53.6,51.8,94,30.00,2.5,Calm,Calm,-,N/A,,Overcast,0,2013-05-09 04:00:00
12:39 AM,53.6,51.8,94,29.99,2.5,Calm,Calm,-,N/A,,Overcast,0,2013-05-09 04:39:00
1:00 AM,53.6,51.8,94,29.98,2.5,Calm,Calm,-,N/A,,Overcast,0,2013-05-09 05:00:00
1:21 AM,51.8,51.8,100,29.97,2.0,Calm,Calm,-,N/A,,Mostly Cloudy,0,2013-05-09 05:21:00
1:39 AM,51.8,51.8,100,29.97,1.8,Calm,Calm,-,N/A,,Mostly Cloudy,0,2013-05-09 05:39:00
2:21 AM,53.6,51.8,94,29.96,2.5,Calm,Calm,-,N/A,,Overcast,0,2013-05-09 06:21:00
2:42 AM,51.8,51.8,100,29.96,1.8,Calm,Calm,-,N/A,,Mostly Cloudy,0,2013-05-09 06:42:00
3:00 AM,50.0,50.0,100,29.96,0.2,Calm,Calm,-,N/A,,Unknown,0,2013-05-09 07:00:00
3:21 AM,50.0,48.2,94,29.95,0.5,Calm,Calm,-,N/A,,Mostly Cloudy,0,2013-05-09 07:21:00
4:00 AM,50.0,48.2,94,29.95,0.5,Calm,Calm,-,N/A,,Overcast,0,2013-05-09 08:00:00
4:42 AM,50.0,50.0,100,29.95,0.5,Calm,Calm,-,N/A,,Overcast,0,2013-05-09 08:42:00
5:21 AM,51.8,50.0,94,29.95,0.5,Calm,Calm,-,N/A,,Overcast,0,2013-05-09 09:21:00
5:42 AM,51.8,50.0,94,29.96,1.0,Calm,Calm,-,N/A,,Overcast,0,2013-05-09 09:42:00
6:00 AM,51.8,50.0,94,29.96,1.5,Calm,Calm,-,N/A,,Overcast,0,2013-05-09 10:00:00
6:21 AM,51.8,50.0,94,29.97,1.0,WSW,3.5,-,N/A,,Overcast,250,2013-05-09 10:21:00
6:42 AM,51.8,51.8,100,29.98,1.0,SW,3.5,-,N/A,,Overcast,220,2013-05-09 10:42:00
7:00 AM,53.6,51.8,94,29.98,1.5,Calm,Calm,-,N/A,,Overcast,0,2013-05-09 11:00:00
7:21 AM,53.6,51.8,94,29.99,1.5,WSW,3.5,-,N/A,,Overcast,250,2013-05-09 11:21:00
8:00 AM,53.6,51.8,94,29.99,1.8,Calm,Calm,-,N/A,,Overcast,0,2013-05-09 12:00:00
8:21 AM,53.6,53.6,100,30.00,1.5,WSW,4.6,-,N/A,,Overcast,240,2013-05-09 12:21:00
9:21 AM,55.4,53.6,94,30.01,3.0,West,4.6,-,N/A,,Overcast,260,2013-05-09 13:21:00
9:42 AM,55.4,53.6,94,30.02,4.0,Calm,Calm,-,N/A,,Overcast,0,2013-05-09 13:42:00
10:00 AM,57.2,55.4,94,30.01,5.0,SW,3.5,-,N/A,,Overcast,220,2013-05-09 14:00:00
10:21 AM,59.0,55.4,88,30.01,10.0,WSW,4.6,-,N/A,,Overcast,240,2013-05-09 14:21:00
11:03 AM,60.8,55.4,82,30.01,10.0,SW,4.6,-,N/A,,Mostly Cloudy,220,2013-05-09 15:03:00
11:21 AM,62.6,55.4,77,30.01,10.0,SW,3.5,-,N/A,,Mostly Cloudy,220,2013-05-09 15:21:00
11:42 AM,64.4,55.4,73,30.01,10.0,WSW,10.4,-,N/A,,Scattered Clouds,250,2013-05-09 15:42:00
12:03 PM,66.2,55.4,68,29.99,10.0,West,3.5,-,N/A,,Clear,270,2013-05-09 16:03:00
12:21 PM,68.0,55.4,64,29.99,10.0,West,10.4,-,N/A,,Clear,260,2013-05-09 16:21:00
12:42 PM,69.8,55.4,60,29.99,10.0,SW,4.6,-,N/A,,Scattered Clouds,220,2013-05-09 16:42:00
1:03 PM,69.8,55.4,60,29.98,10.0,WSW,5.8,-,N/A,,Scattered Clouds,240,2013-05-09 17:03:00
1:21 PM,69.8,55.4,60,29.98,10.0,West,8.1,-,N/A,,Scattered Clouds,260,2013-05-09 17:21:00
1:42 PM,69.8,55.4,60,29.98,10.0,West,5.8,-,N/A,,Mostly Cloudy,270,2013-05-09 17:42:00
2:03 PM,69.8,53.6,56,29.98,10.0,West,6.9,-,N/A,,Scattered Clouds,270,2013-05-09 18:03:00
2:21 PM,71.6,55.4,57,29.97,10.0,WSW,5.8,-,N/A,,Mostly Cloudy,240,2013-05-09 18:21:00
2:42 PM,73.4,53.6,50,29.97,10.0,WSW,9.2,-,N/A,,Mostly Cloudy,240,2013-05-09 18:42:00
3:03 PM,71.6,53.6,53,29.96,10.0,WSW,4.6,-,N/A,,Mostly Cloudy,240,2013-05-09 19:03:00
3:21 PM,71.6,55.4,57,29.96,10.0,West,6.9,-,N/A,,Mostly Cloudy,260,2013-05-09 19:21:00
3:42 PM,71.6,53.6,53,29.96,10.0,WNW,6.9,-,N/A,,Mostly Cloudy,290,2013-05-09 19:42:00
4:03 PM,73.4,53.6,50,29.95,10.0,SW,5.8,-,N/A,,Mostly Cloudy,230,2013-05-09 20:03:00
4:21 PM,75.2,55.4,50,29.95,10.0,WSW,10.4,-,N/A,,Mostly Cloudy,250,2013-05-09 20:21:00
4:42 PM,69.8,53.6,56,29.96,10.0,WSW,6.9,-,N/A,,Overcast,250,2013-05-09 20:42:00
5:03 PM,73.4,55.4,53,29.96,10.0,West,12.7,-,N/A,,Mostly Cloudy,260,2013-05-09 21:03:00
5:21 PM,71.6,55.4,57,29.96,10.0,WSW,8.1,-,N/A,,Scattered Clouds,250,2013-05-09 21:21:00
5:42 PM,71.6,55.4,57,29.96,10.0,WSW,6.9,-,N/A,,Scattered Clouds,240,2013-05-09 21:42:00
6:03 PM,71.6,55.4,57,29.97,10.0,SSW,6.9,-,N/A,,Scattered Clouds,210,2013-05-09 22:03:00
6:21 PM,69.8,57.2,64,29.96,10.0,SW,4.6,-,N/A,,Mostly Cloudy,220,2013-05-09 22:21:00
6:42 PM,69.8,57.2,64,29.96,10.0,SSW,3.5,-,N/A,,Overcast,210,2013-05-09 22:42:00
7:03 PM,68.0,59.0,73,29.97,10.0,SSW,4.6,-,N/A,,Mostly Cloudy,210,2013-05-09 23:03:00
7:21 PM,66.2,59.0,78,29.98,10.0,SW,3.5,-,N/A,,Mostly Cloudy,220,2013-05-09 23:21:00
7:42 PM,64.4,60.8,88,29.98,10.0,SW,3.5,-,N/A,,Overcast,230,2013-05-09 23:42:00
8:03 PM,64.4,60.8,88,29.99,10.0,SSW,3.5,-,N/A,,Overcast,200,2013-05-10 00:03:00
8:42 PM,60.8,59.0,94,30.00,10.0,Calm,Calm,-,N/A,,Scattered Clouds,0,2013-05-10 00:42:00
9:03 PM,60.8,59.0,94,30.00,10.0,SW,4.6,-,N/A,,Clear,220,2013-05-10 01:03:00
9:24 PM,59.0,57.2,94,30.00,7.0,Calm,Calm,-,N/A,,Scattered Clouds,0,2013-05-10 01:24:00
9:42 PM,59.0,57.2,94,30.01,7.0,Calm,Calm,-,N/A,,Scattered Clouds,0,2013-05-10 01:42:00
10:03 PM,59.0,55.4,88,30.02,7.0,Calm,Calm,-,N/A,,Mostly Cloudy,0,2013-05-10 02:03:00
10:24 PM,59.0,55.4,88,30.01,7.0,Calm,Calm,-,N/A,,Scattered Clouds,0,2013-05-10 02:24:00
10:42 PM,57.2,55.4,94,30.02,5.0,Calm,Calm,-,N/A,,Clear,0,2013-05-10 02:42:00
11:03 PM,55.4,53.6,94,30.02,5.0,Calm,Calm,-,N/A,,Clear,0,2013-05-10 03:03:00
11:24 PM,55.4,53.6,94,30.01,2.5,Calm,Calm,-,N/A,,Scattered Clouds,0,2013-05-10 03:24:00